Weather History for KCRG - January, 2013

Change the Weather History Date:

Saturday, January 19, 2013

  Actual Average Record
Temperature  
Mean Temperature 56 °F -  
Max Temperature 61 °F 63 °F 84 °F (2001)
Min Temperature 50 °F 42 °F 31 °F (2003)
Degree Days  
Heating Degree Days 10    
Growing Degree Days 6 (Base 50)    
Moisture  
Dew Point 49 °F    
Average Humidity 77    
Maximum Humidity 89    
Minimum Humidity 67    
Precipitation  
Precipitation 0.00 in - - ()
Sea Level Pressure  
Sea Level Pressure 30.30 in    
Wind  
Wind Speed 9 mph (North)    
Max Wind Speed 16 mph    
Max Gust Speed 26 mph    
Visibility 9 miles    
Events      
Averages and records for this station are not official NWS values.
T = Trace of Precipitation, MM = Missing Value Source: NWS Daily Summary

Daily Weather History Graph

Daily Weather History Graph

Search for Another Location

Airport or City:

Trip Planner

Search our weather history database for the weather conditions in past years. The results will help you decide how hot, cold, wet, or windy it might be!

Date:

Astronomy

Jan. 19, 2013 Rise Set
Actual Time 7:22 AM EST 5:51 PM EST
Civil Twilight 6:56 AM EST 6:17 PM EST
Nautical Twilight 6:27 AM EST 6:46 PM EST
Astronomical Twilight 5:58 AM EST 7:15 PM EST
Moon 12:12 PM EST (1/19) 1:01 AM EST (1/19)
Length of Visible Light 11h 20m
Length of Day
10h 29m
First Quarter, 57% of the Moon is Illuminated
Jan 19
First Quarter
Jan 26
Full
Feb 3
Last Quarter
Feb 10
New
Feb 17
First Quarter

Hourly Weather History & Observations

Time (EST) Temp. Dew Point Humidity Pressure Visibility Wind Dir Wind Speed Gust Speed Precip Events Conditions
1:53 AM 52.0 °F 44.1 °F 74% 30.34 in 10.0 mi NNW 8.1 mph - N/A   Mostly Cloudy
2:53 AM 50.0 °F 43.0 °F 77% 30.35 in 10.0 mi North 8.1 mph - N/A   Partly Cloudy
3:53 AM 50.0 °F 43.0 °F 77% 30.35 in 10.0 mi North 6.9 mph - N/A   Scattered Clouds
4:53 AM 51.1 °F 43.0 °F 74% 30.34 in 10.0 mi North 9.2 mph - N/A   Clear
5:53 AM 51.1 °F 43.0 °F 74% 30.34 in 10.0 mi North 8.1 mph - N/A   Overcast
6:13 AM 50.0 °F 42.8 °F 76% 30.34 in 10.0 mi North 5.8 mph - N/A   Scattered Clouds
6:53 AM 51.1 °F 44.1 °F 77% 30.34 in 10.0 mi NNE 8.1 mph - N/A   Partly Cloudy
7:53 AM 54.0 °F 46.9 °F 77% 30.35 in 10.0 mi NNE 13.8 mph 19.6 mph N/A   Clear
8:53 AM 57.0 °F 48.9 °F 74% 30.36 in 10.0 mi NE 10.4 mph 24.2 mph N/A   Clear
9:46 AM 59.0 °F 50.0 °F 72% 30.38 in 10.0 mi NE 15.0 mph 25.3 mph N/A   Mostly Cloudy
9:53 AM 59.0 °F 50.0 °F 72% 30.38 in 10.0 mi NE 10.4 mph 19.6 mph N/A   Mostly Cloudy
10:53 AM 61.0 °F 50.0 °F 67% 30.37 in 10.0 mi NE 15.0 mph 25.3 mph N/A   Mostly Cloudy
11:53 AM 60.1 °F 51.1 °F 72% 30.36 in 10.0 mi NNE 16.1 mph 23.0 mph N/A   Mostly Cloudy
12:11 PM 60.8 °F 51.8 °F 72% 30.34 in 10.0 mi NNE 15.0 mph 23.0 mph N/A   Mostly Cloudy
12:53 PM 60.1 °F 51.1 °F 72% 30.32 in 10.0 mi NNE 12.7 mph 26.5 mph N/A   Overcast
1:53 PM 59.0 °F 51.1 °F 75% 30.29 in 10.0 mi NNE 12.7 mph 19.6 mph N/A   Overcast
2:53 PM 59.0 °F 51.1 °F 75% 30.26 in 10.0 mi NNE 13.8 mph 19.6 mph N/A   Overcast
3:53 PM 59.0 °F 51.1 °F 75% 30.25 in 10.0 mi NNE 10.4 mph 18.4 mph N/A   Overcast
4:53 PM 59.0 °F 52.0 °F 78% 30.25 in 6.0 mi NNE 8.1 mph - N/A   Haze
5:53 PM 59.0 °F 52.0 °F 78% 30.25 in 6.0 mi North 8.1 mph - N/A   Haze
6:53 PM 59.0 °F 53.1 °F 81% 30.25 in 6.0 mi North 8.1 mph - N/A   Haze
7:53 PM 57.0 °F 52.0 °F 83% 30.25 in 6.0 mi North 5.8 mph - N/A   Haze
8:53 PM 55.9 °F 52.0 °F 87% 30.25 in 6.0 mi North 4.6 mph - N/A   Mostly Cloudy
9:00 PM 55.4 °F 51.8 °F 88% 30.24 in 8.0 mi North 4.6 mph - N/A   Clear
9:53 PM 55.9 °F 52.0 °F 87% 30.23 in 8.0 mi North 4.6 mph - N/A   Clear
10:53 PM 55.0 °F 52.0 °F 89% 30.23 in 7.0 mi North 4.6 mph - N/A   Clear
11:53 PM 55.0 °F 52.0 °F 89% 30.21 in 7.0 mi NNW 4.6 mph - N/A   Clear